Regional Weather Roundup
Issued by NWS Cleveland, OH

Home | Current Version | Previous Version | Graphics & Text | Print | Product List | Glossary On
Versions: 1 2 3 4 5 6 7 8 9 10 11 12 13 14 15 16 17 18 19 20 21 22 23 24 25 26 27 28 29 30 31 32 33 34 35 36 37 38 39 40 41 42 43 44 45 46 47 48 49 50
575
ASUS41 KCLE 270110
RWRCLE
OHIO REGIONAL WEATHER ROUNDUP
NATIONAL WEATHER SERVICE CLEVELAND, OH
900 PM EDT MON JUN 26 2017

NOTE: "FAIR" INDICATES FEW OR NO CLOUDS BELOW 12,000 FEET WITH NO
SIGNIFICANT WEATHER AND/OR OBSTRUCTIONS TO VISIBILITY.

OHZ001>008-015>018-024>027-034-035-043-044-270200-
   NORTHWEST OHIO

CITY           SKY/WX    TMP DP  RH WIND       PRES   REMARKS
DEFIANCE       PTCLDY    57  50  77 SW7       30.01F
FINDLAY        LGT RAIN  56  50  80 SW10      30.03R
TOLEDO EXPRESS CLOUDY    60  50  69 SW9       29.99S
TOLEDO EXEC    CLOUDY    61  54  77 SW10      30.00S
LIMA           CLOUDY    58  51  78 W8        30.04F
$$

OHZ009>014-019>023-028>033-038-089-270200-
   NORTHEAST OHIO

CITY           SKY/WX    TMP DP  RH WIND       PRES   REMARKS
CLE-HOPKINS    MOCLDY    63  48  58 S6        30.01F
CLE-LAKEFRONT  PTCLDY    65  44  46 S10       29.97F
CUY CO. ARPT   MOCLDY    64  48  55 S12       30.00S
LORAIN-ELYRIA  LGT RAIN  60  43  53 W20G30    30.03R
ASHTABULA      CLEAR     62  47  57 S9        30.00S
AKRON-CANTON   CLOUDY    64  49  57 SW3       30.01F
WOOSTER        MOCLDY    64  46  52 SW8       30.02S
MANSFIELD      MOCLDY    57  49  74 NW12      30.03R
YOUNGSTOWN     LGT RAIN  59  48  67 W12       30.03R
$$

OHZ042-051>053-060>062-070>072-077>081-270200-
  SOUTHWEST OHIO

CITY           SKY/WX    TMP DP  RH WIND       PRES   REMARKS
CINC-COVINGTON CLOUDY    67  49  52 W6        30.06F
CINC-LUNKEN    MOCLDY    69  50  50 SW10      30.06S
HAMILTON       MOCLDY    68  51  54 W6        30.06F
DAYTON         PTCLDY    65  47  52 W9        30.05S
WRIGHT-PAT AFB PTCLDY    64  56  76 W6        30.04F
DAYTON GENERAL PTCLDY    68  47  46 W9        30.04S
WILMINGTON     CLOUDY    66  51  58 W7        30.05S
$$

OHZ036-037-039>041-045>050-054>059-063>069-073>076-082>088-270200-
  CENTRAL AND SOUTHEAST OHIO

CITY           SKY/WX    TMP DP  RH WIND       PRES   REMARKS
COLUMBUS       MOCLDY    62  56  80 SW5       30.05R
OSU AIRPORT    MOCLDY    60  55  83 S6        30.04F
BOLTON FIELD   LGT RAIN  60  54  79 W14G20    30.06S
RICKENBACK AFB DRIZZLE   60  55  82 N6        30.04S
NEWARK         LGT RAIN  61  50  67 W13       30.05R
MARION         MOCLDY    61  47  59 N13       30.04R
LANCASTER      LGT RAIN  62  52  69 NW10      30.06R
ZANESVILLE     CLOUDY    65  51  60 S3        30.03F
NEW PHILLY     NOT AVBL
$$




USA.gov is the U.S. government's official web portal to all federal, state and local government web resources and services.